[[{"header":{"parameterUnit":"m.s-1","parameterCategory":1,"la1":30.2991,"la2":30.254,"lo1":-89.0895,"lo2":-89.0444,"dy":0.0017,"dx":0.0017,"nx":28,"ny":28,"refTime":"2026-02-26T03:00:00:Z","depth":0,"parameterNumber":2,"parameterNumberName":"U-component_of_WINDS"},"data":[0,0,0,0,0,0,0,0,0,0,0,0,0,0,0,0,0,0,0,0,0,0,0,0,0,0,0,0,0,0,0,0,0,0,0,0,0,0,0,0,0,0,0,0,0,0,0,0,0,0,0,0,0,0,0,0,0,0,1.1056,1.1057,0,1.1116,1.1117,1.1118,1.1091,1.109,1.1088,1.1087,1.1154,1.1157,1.1161,0,0,0,0,0,0,0,0,0,0,0,0,0,1.0925,1.0927,1.1056,1.1057,1.1058,1.1116,1.1117,1.1118,1.1091,1.109,1.1088,1.1086,1.1153,1.1157,1.1161,0,0,0,0,0,0,0,0,0,0,0,0,0,1.0983,1.0928,1.1056,1.1051,1.1051,1.1116,1.1117,1.1118,1.1092,1.109,1.1087,1.1085,1.1152,1.1157,1.1161,1.1236,0,0,1.1176,1.1178,0,0,0,0,0,0,0,0,1.098,1.0988,1.1051,1.1052,1.1052,1.1094,1.1095,1.1158,1.1092,1.1077,1.1087,1.1084,1.1136,1.1142,1.1159,1.1239,1.1242,1.1176,1.1179,1.1181,1.1183,0,0,0,0,0,0,0,1.0976,1.0985,1.108,1.1052,1.1053,1.1048,1.1054,1.1107,1.1119,1.1078,1.1076,1.1083,1.1136,1.1154,1.116,1.1243,1.1176,1.1181,1.1183,1.1185,1.139,1.1392,0,0,0,0,0,0,1.0971,1.0982,1.1078,1.1082,1.1009,1.1052,1.1059,1.1083,1.1118,1.1121,1.1085,1.1082,1.1147,1.1155,1.1162,1.1254,1.1181,1.1186,1.1189,1.1387,1.139,1.1393,0,0,0,0,0,0,1.0968,1.098,1.1076,1.1031,1.1043,1.1057,1.1084,1.1085,1.1103,1.1123,1.1126,1.1101,1.1146,1.1156,1.1218,1.1256,1.1188,1.1192,1.1384,1.1388,1.1392,1.1436,0,0,0,0,0,0,1.0964,1.0979,1.1006,1.1032,1.1046,1.1129,1.1086,1.1088,1.1111,1.1107,1.1139,1.1142,1.1145,1.1211,1.1223,1.1261,1.1196,1.1381,1.1386,1.139,1.1431,1.1441,1.1449,0,0,0,0,0,1.096,1.1017,1.1007,1.1019,1.1079,1.1131,1.1139,1.1139,1.1114,1.1142,1.1155,1.1141,1.1249,1.1217,1.123,1.1271,1.1379,1.1384,1.139,1.1427,1.1439,1.1449,0,0,0,0,0,0,1.0996,1.102,1.101,1.1076,1.1101,1.1126,1.1162,1.1151,1.1185,1.118,1.1181,1.1188,1.1253,1.1268,1.1232,1.1346,1.131,1.1319,1.1334,1.1345,1.1354,1.135,1.12,0,0,0,0,0,1.1011,1.1049,1.1069,1.1126,1.1138,1.1148,1.117,1.1168,1.1195,1.1206,1.1224,1.1252,1.1293,1.1319,1.1358,1.1432,1.1441,1.1467,1.1476,1.1483,1.1491,1.1535,1.1547,1.1412,1.1412,1.1412,0,0,1.1044,1.1062,1.1086,1.1133,1.1153,1.1194,1.1157,1.1202,1.1234,1.1214,1.1274,1.1287,1.1319,1.1389,1.142,1.1403,1.153,1.149,1.1496,1.15,1.1542,1.1555,1.1566,1.1416,1.1415,1.1414,0,0,1.1126,1.1142,1.1192,1.1212,1.1241,1.1247,1.1259,1.1285,1.1293,1.1353,1.1339,1.1378,1.1446,1.147,1.1492,1.1583,1.1572,1.1595,1.1643,1.1685,1.1696,1.1705,1.174,1.1753,1.1603,1.1603,1.1603,0,1.1164,1.1224,1.122,1.1266,1.1288,1.127,1.1323,1.1342,1.1383,1.14,1.138,1.1467,1.1487,1.1563,1.1585,1.1602,1.1618,1.1593,1.1694,1.1703,1.1712,1.1746,1.1759,1.1606,1.1606,1.1605,1.1605,0,1.127,1.1312,1.1349,1.1388,1.1414,1.1463,1.1469,1.1497,1.1492,1.1501,1.1564,1.1586,1.163,1.1647,1.1644,1.1724,1.1712,1.1693,1.1658,1.1728,1.176,1.1773,1.161,1.1609,1.1608,1.1607,0,0,1.1377,1.1413,1.1427,1.1445,1.1476,1.1509,1.1558,1.1599,1.1624,1.1653,1.1696,1.1755,1.1738,1.1762,1.1761,1.1797,1.1871,1.1774,1.1775,1.1793,1.1964,1.198,1.1995,1.1863,1.1866,1.1867,1.1962,0,1.1463,1.1548,1.1546,1.1625,1.1666,1.1649,1.1692,1.1717,1.1727,1.1764,1.1775,1.1818,1.179,1.1805,1.184,1.1855,1.1906,1.1848,1.1907,1.1909,1.1902,1.2011,1.2028,1.2116,1.1974,1.1976,1.1978,0,1.1575,1.1606,1.1689,1.1715,1.1732,1.1771,1.1809,1.1844,1.1873,1.1877,1.1904,1.1898,1.1951,1.1912,1.1986,1.1947,1.197,1.1981,1.1985,1.1992,1.1949,1.2024,1.2144,1.2158,1.1997,1.1995,1.1994,0,1.1648,1.1711,1.1769,1.1785,1.1816,1.1844,1.1859,1.1885,1.1911,1.1944,1.1961,1.2001,1.2024,1.2056,1.2062,1.2033,1.2138,1.2099,1.2146,1.2146,1.217,1.2169,1.2298,1.2181,1.2181,1.2181,1.2181,0,1.1745,1.1798,1.1803,1.1839,1.1898,1.1896,1.1955,1.1968,1.1991,1.2031,1.2019,1.2058,1.2061,1.2102,1.2106,1.2169,1.2179,1.2186,1.2187,1.2189,1.2188,1.2206,1.2201,1.2184,1.2184,1.2183,1.2182,0,1.1838,1.1843,1.1906,1.193,1.1938,1.198,1.2002,1.2038,1.2046,1.2097,1.2109,1.2123,1.217,1.2178,1.2234,1.2237,1.2312,1.2306,1.2302,1.2302,1.235,1.2346,1.2497,1.2518,1.2385,1.2386,1.2387,0,1.1901,1.1941,1.1969,1.1994,1.201,1.2051,1.2076,1.2077,1.2104,1.214,1.2173,1.2218,1.2254,1.233,1.2347,1.239,1.2386,1.2436,1.2393,1.2394,1.239,1.2389,1.2394,1.2445,1.2447,1.2448,1.2449,0,1.2013,1.2014,1.205,1.2088,1.2118,1.2148,1.2177,1.2199,1.2203,1.2235,1.2282,1.231,1.2366,1.2413,1.2455,1.2473,1.2463,1.2462,1.2475,1.2479,1.2476,1.2481,1.2328,1.2459,1.2458,1.2457,1.2457,1.2456,1.2095,1.213,1.2156,1.2198,1.2219,1.2246,1.2281,1.2293,1.2332,1.2377,1.2375,1.2427,1.2457,1.2513,1.2533,1.2576,1.256,1.2579,1.2585,1.259,1.2596,1.2467,1.2583,1.2583,1.2583,1.2583,1.2582,0,1.2209,1.2225,1.2262,1.2302,1.2336,1.232,1.2351,1.2381,1.2427,1.2454,1.249,1.2545,1.259,1.261,1.2654,1.2685,1.2682,1.2697,1.2696,1.2701,1.2606,1.2591,1.2699,1.2699,1.2699,1.2699,1.2699,1.2699,1.2273,1.2332,1.2336,1.2407,1.2423,1.2473,1.2492,1.2518,1.254,1.2602,1.2639,1.265,1.2676,1.2722,1.2764,1.2768,1.2787,1.2805,1.2808,1.2719,1.2708,1.2696,1.2682,1.2808,1.2808,1.29,1.2901,1.2902]},{"header":{"parameterUnit":"m.s-1","parameterCategory":1,"la1":30.2991,"la2":30.254,"lo1":-89.0895,"lo2":-89.0444,"dy":0.0017,"dx":0.0017,"nx":28,"ny":28,"refTime":"2026-02-26T03:00:00:Z","depth":0,"parameterNumber":3,"parameterNumberName":"V-component_of_WINDS"},"data":[0,0,0,0,0,0,0,0,0,0,0,0,0,0,0,0,0,0,0,0,0,0,0,0,0,0,0,0,0,0,0,0,0,0,0,0,0,0,0,0,0,0,0,0,0,0,0,0,0,0,0,0,0,0,0,0,0,0,4.6698,4.6699,0,4.6809,4.681,4.6811,4.6787,4.6785,4.6783,4.6781,4.6895,4.69,4.6905,0,0,0,0,0,0,0,0,0,0,0,0,0,4.6464,4.6468,4.6697,4.6699,4.67,4.6809,4.681,4.6812,4.6787,4.6785,4.6782,4.678,4.6894,4.6899,4.6905,0,0,0,0,0,0,0,0,0,0,0,0,0,4.6569,4.647,4.6697,4.6701,4.6703,4.6808,4.681,4.6812,4.6788,4.6785,4.6782,4.6779,4.6892,4.6899,4.6906,4.7015,0,0,4.6929,4.6932,0,0,0,0,0,0,0,0,4.6563,4.6578,4.6699,4.6701,4.6703,4.6781,4.677,4.688,4.6789,4.6756,4.6781,4.6777,4.686,4.687,4.6897,4.702,4.7025,4.693,4.6934,4.6937,4.694,0,0,0,0,0,0,0,4.6556,4.6573,4.6742,4.6701,4.6703,4.6697,4.6709,4.6791,4.6824,4.6758,4.6757,4.677,4.686,4.689,4.69,4.7027,4.693,4.6936,4.6941,4.6944,4.7246,4.725,0,0,0,0,0,0,4.6547,4.6567,4.6738,4.6745,4.6624,4.6704,4.6717,4.6759,4.6823,4.683,4.6773,4.6769,4.6879,4.6891,4.6904,4.7037,4.6937,4.6944,4.6949,4.7243,4.7247,4.7251,0,0,0,0,0,0,4.6542,4.6563,4.6734,4.6656,4.6677,4.6712,4.6759,4.6763,4.6793,4.6834,4.684,4.6798,4.6877,4.6893,4.6988,4.7041,4.6948,4.6955,4.7238,4.7244,4.7249,4.7304,0,0,0,0,0,0,4.6536,4.6561,4.6603,4.6657,4.6681,4.6816,4.6762,4.6767,4.6806,4.6802,4.6859,4.6865,4.6876,4.6977,4.6995,4.7049,4.696,4.7234,4.7241,4.7247,4.7297,4.731,4.7321,0,0,0,0,0,4.6527,4.6614,4.6605,4.6626,4.6734,4.6819,4.6833,4.6844,4.681,4.6853,4.6879,4.6863,4.7031,4.6987,4.7007,4.7064,4.7231,4.7239,4.7247,4.7292,4.7308,4.7321,0,0,0,0,0,0,4.6565,4.6621,4.6612,4.6718,4.6764,4.6815,4.6869,4.686,4.6916,4.691,4.692,4.6933,4.703,4.7056,4.7006,4.7174,4.7126,4.7139,4.7154,4.7169,4.7181,4.7174,4.6967,0,0,0,0,0,4.6585,4.665,4.6695,4.6784,4.6807,4.6834,4.6872,4.6876,4.6924,4.6943,4.6976,4.7024,4.7087,4.7129,4.7189,4.73,4.7313,4.7349,4.7361,4.7371,4.7382,4.7444,4.7461,4.7277,4.7277,4.7277,0,0,4.6629,4.6667,4.6707,4.6793,4.6829,4.6896,4.6851,4.6923,4.6973,4.6954,4.7046,4.7072,4.7125,4.7229,4.7276,4.7254,4.7435,4.7381,4.7388,4.7395,4.7454,4.7472,4.7487,4.7282,4.7281,4.7281,0,0,4.6743,4.6777,4.6856,4.6893,4.6949,4.6966,4.6985,4.7037,4.7054,4.7146,4.7134,4.7192,4.7301,4.7341,4.7375,4.7503,4.7491,4.7522,4.7585,4.7646,4.766,4.7673,4.7721,4.7738,4.7533,4.7533,4.7533,0,4.679,4.689,4.6898,4.6972,4.7011,4.6996,4.7077,4.7112,4.7184,4.7212,4.7185,4.7322,4.7356,4.747,4.7501,4.7528,4.7551,4.7517,4.7657,4.767,4.7683,4.7728,4.7746,4.7536,4.7536,4.7536,4.7535,0,4.6946,4.7016,4.7073,4.7144,4.7188,4.7265,4.7285,4.7329,4.7329,4.7349,4.7444,4.7484,4.7554,4.758,4.758,4.7694,4.7679,4.7654,4.7608,4.7704,4.7747,4.7765,4.7541,4.754,4.7539,4.7538,0,0,4.7089,4.7163,4.7184,4.7216,4.7276,4.733,4.7406,4.7474,4.7513,4.7562,4.7627,4.7719,4.7698,4.7736,4.7741,4.7793,4.7895,4.7763,4.7764,4.7788,4.8024,4.8044,4.8064,4.7886,4.7889,4.7892,4.8021,0,4.721,4.7345,4.7355,4.7477,4.7542,4.7529,4.7595,4.7639,4.7659,4.7718,4.7739,4.7806,4.7771,4.7794,4.7845,4.7871,4.7943,4.7862,4.7948,4.7951,4.7938,4.8087,4.8108,4.8228,4.8037,4.804,4.8042,0,4.737,4.7426,4.7555,4.7606,4.7634,4.7693,4.7757,4.7812,4.7862,4.7873,4.7916,4.7913,4.7991,4.7939,4.8049,4.7993,4.8029,4.8047,4.8051,4.8062,4.8005,4.8104,4.8266,4.8285,4.8069,4.8066,4.8065,0,4.7465,4.7571,4.7662,4.769,4.7752,4.7794,4.7822,4.7868,4.7908,4.7963,4.799,4.8053,4.8088,4.8137,4.8151,4.8112,4.8261,4.8209,4.8273,4.8273,4.8308,4.8306,4.8481,4.8326,4.8325,4.8325,4.8325,0,4.7601,4.7681,4.7706,4.7763,4.7852,4.7861,4.7949,4.7974,4.8015,4.8077,4.8067,4.8125,4.8139,4.82,4.821,4.83,4.8315,4.8327,4.833,4.833,4.8329,4.8356,4.8349,4.833,4.8329,4.8328,4.8327,0,4.7723,4.7742,4.7842,4.7891,4.7906,4.797,4.8013,4.8067,4.8085,4.8163,4.8182,4.8211,4.8282,4.83,4.8384,4.8391,4.8498,4.8491,4.8482,4.8483,4.8547,4.8542,4.8747,4.8776,4.8599,4.8601,4.8602,0,4.781,4.7871,4.7928,4.7969,4.7998,4.8063,4.8105,4.8116,4.8159,4.822,4.8268,4.8337,4.8394,4.8507,4.8536,4.86,4.8597,4.8664,4.8607,4.8605,4.8601,4.8599,4.8606,4.8676,4.8678,4.868,4.8681,0,4.7963,4.797,4.803,4.8094,4.8144,4.8195,4.8243,4.8277,4.8295,4.8344,4.8416,4.846,4.8546,4.8616,4.8681,4.8709,4.8699,4.8698,4.8717,4.8719,4.8713,4.872,4.8515,4.8694,4.8693,4.8692,4.8691,4.8691,4.8073,4.8127,4.8176,4.8244,4.8281,4.8327,4.8381,4.8406,4.8467,4.8539,4.854,4.862,4.8667,4.8754,4.8785,4.8848,4.8827,4.8854,4.8861,4.8868,4.8875,4.87,4.8859,4.8859,4.8858,4.8858,4.8858,0,4.8228,4.8259,4.832,4.8389,4.8442,4.8427,4.848,4.8526,4.8596,4.8641,4.8697,4.8781,4.8848,4.8881,4.8948,4.8992,4.8989,4.9009,4.9008,4.9015,4.8888,4.8867,4.9011,4.9011,4.9011,4.9011,4.9011,4.901,4.8315,4.8408,4.842,4.8531,4.8561,4.8639,4.8671,4.8713,4.875,4.8844,4.89,4.8921,4.8962,4.9032,4.9093,4.9101,4.9128,4.9151,4.9157,4.9039,4.9024,4.9009,4.8989,4.9156,4.9156,4.9279,4.928,4.9281]}]]